User: anonymous   Login
Location: Potawatomi Wildlife Park
(41.2308°N, 86.1050°W)
Time: 09:02:43
(UTC-04:00)
Language:

SL-16 R/B - Orbit

View from above orbital plane
View from above orbital plane
View from above satellite
View from above satellite

Ground track
Ground track

The orbit data is extracted from the following two-line orbital elements,

1 27006U 01056F   16178.09513556 -.00000040  00000-0  32326-5 0  9990
2 27006  99.2603 325.2401 0015055 155.3135 333.1496 13.70969719727706
Epoch (UTC): 26 June 2016 02:16:59
Eccentricity: 0.0015055
inclination: 99.2603°
perigee height: 985 km
apogee height: 1007 km
right ascension of ascending node: 325.2401°
argument of perigee: 155.3135°
revolutions per day: 13.70969719
mean anomaly at epoch: 333.1496°
orbit number at epoch: 72770

The dashed part of the orbit path shows where the satellite is in the earth's shadow,  

DLR